Overview Statistics Trail Chart Weather Telemetry Raw packets
 

This is the latest recevied weather packets stored in our database for station/object WX6HNX-14. If no packets are shown the sender has not sent any weather packets the latest 10 day(s).

<< 24 25 26 27 28 29 30 >>
Time Temp. Humidity Pressure Rain* Wind** Luminosity Snow
1777588243 27.78° C 34% 1010.9 hPa 0 mm - - -
1777587943 27.22° C 34% 1011 hPa 0 mm - - -
1777587643 27.22° C 34% 1011 hPa 0 mm - - -
1777587343 27.22° C 35% 1011 hPa 0 mm - - -
1777587043 27.78° C 34% 1011.1 hPa 0 mm - - -
1777586744 27.22° C 34% 1011.2 hPa 0 mm - - -
1777586445 27.22° C 34% 1011.3 hPa 0 mm - - -
1777586143 27.78° C 34% 1011.4 hPa 0 mm - - -
1777585345 27.22° C 34% 1011.6 hPa 0 mm - - -
1777403609 19.44° C 52% 1019 hPa 0 mm - - -
1777403078 18.89° C 52% 1019.2 hPa 0 mm - - -
1777402474 18.89° C 51% 1019.3 hPa 0 mm - - -
1777402174 18.89° C 51% 1019.4 hPa 0 mm - - -
1777401874 18.89° C 52% 1019.5 hPa 0 mm - - -
1777401574 18.89° C 53% 1019.5 hPa 0 mm - - -
1777401275 18.89° C 53% 1019.6 hPa 0 mm - - -
1777400974 18.89° C 54% 1019.7 hPa 0 mm - - -
1777400674 18.33° C 54% 1019.7 hPa 0 mm - - -
1777400374 18.33° C 54% 1019.8 hPa 0 mm - - -
1777400074 18.33° C 54% 1019.8 hPa 0 mm - - -
1777399775 17.78° C 55% 1019.9 hPa 0 mm - - -
1777399476 17.78° C 55% 1020.1 hPa 0 mm - - -
1777399174 17.78° C 55% 1020.1 hPa 0 mm - - -
1777398874 17.78° C 56% 1020 hPa 0 mm - - -
1777398575 17.22° C 57% 1020.1 hPa 0 mm - - -

* Rain latest hour (hover to see other rain measurements)
** Current wind speed in m/s (hover to see current wind gust speed)